| time (UTC) | temp F | wind direction | speed MPH | gust MPH | rain 1hr in | rain 24hr in | rain mn in | humidity % | barometer mb |
| 20260505173100 | 79 | 65 | 7.0 | 14.0 | 0.00 | 0.19 | 0.02 | 87 | 1010.3 |
| 20260505171557 | 79 | 75 | 5.0 | 11.0 | 0.00 | 0.19 | 0.02 | 88 | 1010.3 |
| 20260505170110 | 78 | 63 | 3.0 | 9.0 | 0.00 | 0.19 | 0.02 | 90 | 1010.4 |
| 20260505164558 | 78 | 62 | 4.0 | 10.0 | 0.00 | 0.19 | 0.02 | 90 | 1010.6 |
| 20260505163102 | 78 | 70 | 5.0 | 13.0 | 0.00 | 0.19 | 0.02 | 89 | 1010.8 |
| 20260505161616 | 78 | 67 | 5.0 | 14.0 | 0.00 | 0.19 | 0.02 | 90 | 1010.9 |
| 20260505153106 | 77 | 53 | 6.0 | 17.0 | 0.01 | 0.19 | 0.02 | 91 | 1011.3 |
| 20260505151605 | 77 | 88 | 8.0 | 17.0 | 0.02 | 0.19 | 0.02 | 91 | 1011.3 |
| 20260505140112 | 77 | 63 | 6.0 | 12.0 | 0.00 | 0.17 | 0.00 | 92 | 1011.8 |
| 20260505124558 | 77 | 80 | 6.0 | 17.0 | 0.06 | 0.18 | 0.17 | 91 | 1012.5 |
| 20260505123105 | 77 | 63 | 8.0 | 13.0 | 0.06 | 0.18 | 0.17 | 91 | 1012.5 |
| 20260505121630 | 77 | 77 | 6.0 | 15.0 | 0.06 | 0.17 | 0.16 | 93 | 1012.6 |
| 20260505120057 | 77 | 41 | 7.0 | 14.0 | 0.02 | 0.12 | 0.11 | 91 | 1012.7 |
| 20260505114557 | 77 | 80 | 5.0 | 10.0 | 0.02 | 0.12 | 0.11 | 91 | 1012.5 |
| 20260505113058 | 77 | 78 | 4.0 | 10.0 | 0.02 | 0.12 | 0.11 | 92 | 1012.5 |
| 20260505111557 | 77 | 78 | 6.0 | 16.0 | 0.01 | 0.11 | 0.10 | 92 | 1012.5 |
| 20260505101558 | 77 | 85 | 7.0 | 17.0 | 0.08 | 0.10 | 0.09 | 91 | 1012.0 |
| 20260505100101 | 80 | 71 | 6.0 | 14.0 | 0.00 | 0.02 | 0.01 | 87 | 1011.9 |
| 20260505094558 | 80 | 76 | 4.0 | 12.0 | 0.00 | 0.02 | 0.01 | 85 | 1011.7 |
| 20260505093057 | 79 | 78 | 6.0 | 14.0 | 0.00 | 0.02 | 0.01 | 86 | 1011.5 |
| 20260505091557 | 79 | 96 | 5.0 | 14.0 | 0.00 | 0.02 | 0.01 | 88 | 1011.4 |
| 20260505090107 | 80 | 85 | 6.0 | 15.0 | 0.00 | 0.02 | 0.01 | 86 | 1011.5 |
| 20260505084559 | 79 | 63 | 3.0 | 10.0 | 0.00 | 0.02 | 0.01 | 86 | 1011.3 |
| 20260505083102 | 79 | 77 | 3.0 | 14.0 | 0.00 | 0.02 | 0.01 | 85 | 1011.1 |
| 20260505081603 | 79 | 53 | 5.0 | 14.0 | 0.00 | 0.02 | 0.01 | 85 | 1010.9 |
| 20260505080057 | 80 | 76 | 7.0 | 16.0 | 0.00 | 0.02 | 0.01 | 86 | 1010.8 |
| 20260505074557 | 82 | 86 | 7.0 | 13.0 | 0.00 | 0.02 | 0.01 | 83 | 1010.4 |
| 20260505073100 | 81 | 69 | 6.0 | 14.0 | 0.01 | 0.02 | 0.01 | 83 | 1010.3 |
| 20260505071601 | 82 | 77 | 6.0 | 15.0 | 0.01 | 0.02 | 0.01 | 83 | 1010.2 |
| 20260505070100 | 81 | 74 | 7.0 | 15.0 | 0.01 | 0.02 | 0.01 | 85 | 1010.3 |
| 20260505064559 | 81 | 47 | 6.0 | 17.0 | 0.01 | 0.02 | 0.01 | 86 | 1010.3 |
| 20260505063057 | 81 | 74 | 4.0 | 13.0 | 0.00 | 0.01 | 0.00 | 85 | 1010.4 |
| 20260505061610 | 84 | 51 | 4.0 | 12.0 | 0.00 | 0.01 | 0.00 | 79 | 1010.2 |
| 20260505054600 | 85 | 74 | 6.0 | 16.0 | 0.00 | 0.01 | 0.00 | 77 | 1010.6 |
| 20260505053106 | 84 | 62 | 6.0 | 13.0 | 0.00 | 0.01 | 0.00 | 78 | 1010.6 |
| 20260505051559 | 84 | 72 | 8.0 | 18.0 | 0.00 | 0.01 | 0.00 | 78 | 1010.4 |
| 20260505041558 | 85 | 65 | 6.0 | 15.0 | 0.00 | 0.01 | 0.00 | 78 | 1010.4 |
| 20260505034559 | 85 | 63 | 8.0 | 15.0 | 0.00 | 0.01 | 0.00 | 76 | 1010.5 |
| 20260505033114 | 86 | 76 | 7.0 | 16.0 | 0.00 | 0.01 | 0.00 | 75 | 1010.7 |
| 20260505031557 | 85 | 76 | 9.0 | 15.0 | 0.00 | 0.01 | 0.00 | 76 | 1010.9 |
| 20260505030058 | 85 | 66 | 7.0 | 17.0 | 0.00 | 0.01 | 0.00 | 77 | 1011.0 |
| 20260505024609 | 84 | 76 | 8.0 | 14.0 | 0.00 | 0.01 | 0.00 | 77 | 1011.2 |
| 20260505023106 | 86 | 63 | 6.0 | 16.0 | 0.00 | 0.01 | 0.00 | 76 | 1011.3 |
| 20260505021602 | 85 | 77 | 6.0 | 14.0 | 0.00 | 0.01 | 0.00 | 77 | 1011.6 |
| 20260505014600 | 85 | 50 | 8.0 | 16.0 | 0.00 | 0.01 | 0.00 | 77 | 1011.9 |
| 20260505013105 | 85 | 76 | 5.0 | 14.0 | 0.00 | 0.01 | 0.00 | 77 | 1011.9 |
| 20260505011604 | 85 | 80 | 9.0 | 14.0 | 0.00 | 0.01 | 0.00 | 77 | 1012.1 |
| 20260505010104 | 85 | 63 | 8.0 | 14.0 | 0.00 | 0.01 | 0.00 | 75 | 1012.3 |
| 20260505004603 | 85 | 42 | 8.0 | 14.0 | 0.00 | 0.01 | 0.00 | 77 | 1012.4 |
| 20260505003104 | 85 | 35 | 7.0 | 12.0 | 0.00 | 0.01 | 0.00 | 74 | 1012.6 |
| 20260505001558 | 85 | 92 | 7.0 | 15.0 | 0.00 | 0.01 | 0.00 | 75 | 1012.7 |
| 20260504234624 | 85 | 55 | 7.0 | 15.0 | 0.00 | 0.01 | 0.00 | 74 | 1013.0 |
| 20260504233058 | 84 | 86 | 7.0 | 16.0 | 0.00 | 0.01 | 0.00 | 75 | 1013.0 |
| 20260504231605 | 83 | 58 | 6.0 | 13.0 | 0.00 | 0.01 | 0.00 | 79 | 1013.0 |
| 20260504230057 | 84 | 69 | 6.0 | 14.0 | 0.00 | 0.01 | 0.00 | 79 | 1012.9 |
| 20260504224606 | 83 | 60 | 6.0 | 14.0 | 0.00 | 0.01 | 0.00 | 79 | 1013.0 |
| 20260504223057 | 83 | 67 | 6.0 | 12.0 | 0.00 | 0.01 | 0.00 | 78 | 1013.0 |
| 20260504221604 | 83 | 78 | 6.0 | 14.0 | 0.00 | 0.01 | 0.00 | 77 | 1012.8 |
| 20260504220100 | 82 | 73 | 5.0 | 11.0 | 0.00 | 0.01 | 0.00 | 77 | 1012.7 |
| 20260504214602 | 82 | 71 | 6.0 | 16.0 | 0.00 | 0.01 | 0.00 | 79 | 1012.6 |
| 20260504213105 | 82 | 53 | 6.0 | 13.0 | 0.00 | 0.01 | 0.00 | 80 | 1012.4 |
| 20260504211606 | 81 | 56 | 3.0 | 10.0 | 0.00 | 0.01 | 0.00 | 83 | 1012.4 |
| 20260504210104 | 81 | 73 | 6.0 | 13.0 | 0.00 | 0.01 | 0.00 | 80 | 1012.3 |
| 20260504204637 | 81 | 61 | 5.0 | 14.0 | 0.00 | 0.08 | 0.00 | 82 | 1012.1 |
| 20260504203056 | 80 | 70 | 5.0 | 11.0 | 0.00 | 0.08 | 0.00 | 83 | 1012.0 |
| 20260504201559 | 80 | 74 | 6.0 | 15.0 | 0.00 | 0.08 | 0.00 | 83 | 1011.8 |
| 20260504194558 | 80 | 67 | 3.0 | 10.0 | 0.00 | 0.08 | 0.00 | 86 | 1011.6 |
| 20260504193056 | 80 | 76 | 4.0 | 14.0 | 0.00 | 0.08 | 0.00 | 85 | 1011.5 |
| 20260504191559 | 80 | 76 | 4.0 | 13.0 | 0.00 | 0.08 | 0.00 | 84 | 1011.3 |
| 20260504184605 | 80 | 65 | 3.0 | 10.0 | 0.00 | 0.08 | 0.00 | 85 | 1011.1 |
| 20260504183101 | 80 | 53 | 5.0 | 13.0 | 0.00 | 0.08 | 0.00 | 84 | 1011.1 |
| 20260504181556 | 80 | 72 | 3.0 | 11.0 | 0.00 | 0.08 | 0.00 | 86 | 1011.0 |
| 20260504180058 | 80 | 64 | 4.0 | 9.0 | 0.00 | 0.08 | 0.00 | 84 | 1011.0 |
| 20260504174559 | 80 | 76 | 4.0 | 9.0 | 0.00 | 0.08 | 0.00 | 84 | 1011.0 |